{"data":{"norad_id":53677,"intl_designator":"2022-105AF","name":"STARLINK-4579","alt_names":[],"object_type":"PAYLOAD","status":"ACTIVE","operator":null,"country":"US","launch_date":"2022-08-31","launch_site_code":"AFWTR","launch_vehicle":null,"mission":null,"orbit_class":"UNKNOWN","rcs_meters":null,"size_class":null,"mass_kg":null,"dimensions":null,"purposes":["comms"],"wikipedia_slug":null,"has_3d_model":false,"image_url":null,"decayed_at":null,"tle_current":{"epoch":"2026-05-25T02:46:57.318816Z","epoch_age_seconds":68171,"freshness":"FRESH","line1":"1 53677U 22105AF  26145.11594119 -.00002957  00000+0 -20092-3 0  9997","line2":"2 53677  97.4527  26.1884 0002014  81.0695 279.0760 15.05657901204803","mean_motion":15.05657901,"eccentricity":0.0002014,"inclination_deg":97.4527,"raan_deg":26.1884,"arg_perigee_deg":81.0695,"mean_anomaly_deg":279.076,"bstar":-0.00020092,"rev_number":20480,"period_min":95.639255042172,"perigee_km":548.0916951537,"apogee_km":550.88214206812,"semimajor_km":6927.6239186109,"source":"CELESTRAK","updated_at":"2026-05-25T13:38:17.490620Z"}}}